User: anonymous   Login
Location: Unspecified
(0.0000°N, 0.0000°E)
Time: 07:12:19
(UTC+00:00)
Language:

Kosmos-2135 - Orbit

View from above orbital plane
View from above orbital plane
View from above satellite
View from above satellite

Ground track
Ground track

The orbit data is extracted from the following two-line orbital elements,

1 21130U 91013A   18023.96105447 +.00000030 +00000-0 +13649-4 0  9991
2 21130 082.8273 019.0658 0066737 144.9297 215.6282 13.78508456353546
Epoch (UTC): 23 January 2018 23:03:55
Eccentricity: 0.0066737
inclination: 82.8273°
perigee height: 920 km
apogee height: 1018 km
right ascension of ascending node: 19.0658°
argument of perigee: 144.9297°
revolutions per day: 13.78508456
mean anomaly at epoch: 215.6282°
orbit number at epoch: 35354

The dashed part of the orbit path shows where the satellite is in the earth's shadow,  

DLR